#timestamp,LO_Frequency,Hit,StdDev 
1678471215.2,286047014.7,Y
1678471235.0,286046993.9,P
1678471235.9,286046993.9,N
1678471255.8,286046995.1,N
1678471275.6,286046995.4,N
1678471295.5,286046994.4,N
1678471315.3,286047003.5,N
1678471335.1,286047007.0,N
1678471355.9,286047004.3,N
1678471375.7,286046999.8,N
1678471395.5,286047004.8,N
1678471415.4,286047005.0,N
1678471435.2,286047005.2,N
1678471455.0,286047001.7,N
1678471456.0,286047001.7,N
1678471475.8,286046999.2,N
1678471495.6,286046991.9,N
1678471515.5,286046987.6,N
1678471535.3,286046984.1,N
1678471555.1,286046989.7,N
1678471575.9,286046988.3,N
1678471595.7,286046987.2,N
1678471615.5,286046995.7,N
1678471635.4,286046997.5,N
1678471655.2,286047002.7,N
1678471675.1,286046996.4,N
1678471676.0,286046996.4,N
1678471695.8,286046990.7,N
1678471715.6,286046993.7,N
1678471735.5,286046995.0,N
1678471755.3,286046997.3,N
1678471775.1,286047004.3,N
1678471795.9,286046999.6,N
1678471815.7,286046994.7,N
1678471835.6,286046989.3,N
1678471855.4,286046990.7,N
1678471875.2,286046989.6,N
1678471895.1,286046984.0,N
1678471896.0,286046984.0,N
1678471915.8,286046983.4,N
1678471935.7,286046984.2,N
1678471955.5,286046993.2,N
1678471975.3,286046996.4,N
1678471995.2,286046992.0,N
1678472015.0,286046987.4,N
1678472015.9,286046987.4,N
1678472035.8,286046991.7,N
1678472055.6,286046997.7,N
1678472075.4,286046998.3,N
1678472095.3,286046995.8,N
1678472115.1,286046999.4,N
1678472135.8,286047003.9,N
1678472155.7,286046995.9,N
1678472175.5,286046995.3,N
1678472195.4,286047001.7,N
1678472215.2,286047013.6,N
1678472235.0,286047021.2,Y
1678472235.9,286047021.2,P
1678472255.8,286047025.8,N
1678472275.6,286047022.1,N
1678472295.4,286047014.6,N
1678472315.3,286047010.6,N
1678472335.1,286047010.4,N
1678472355.9,286047008.8,N
1678472375.7,286047010.4,N
1678472395.5,286047007.8,N
1678472415.4,286047005.0,N
1678472435.2,286047009.5,N
1678472455.0,286047005.3,N
1678472455.9,286047005.3,N
1678472475.8,286047001.3,N
1678472495.6,286047003.5,N
1678472515.5,286047002.5,N
1678472535.3,286047007.9,N
1678472555.1,286047005.4,N
1678472575.9,286047000.2,N
1678472595.7,286047007.4,N
1678472615.5,286047015.4,N
1678472635.4,286047006.6,N
1678472655.2,286047010.4,N
1678472675.1,286047006.2,N
1678472676.0,286047006.2,N
1678472695.8,286047019.5,N
1678472715.6,286047028.6,Y
1678472735.5,286047025.5,P
1678472755.3,286047021.9,N
1678472775.1,286047017.3,N
1678472795.9,286047018.2,N
1678472815.7,286047017.6,Y
1678472835.6,286047000.7,P
1678472855.4,286047002.2,N
1678472875.2,286046996.6,N
1678472895.1,286046997.8,N
1678472896.0,286046997.8,N
1678472915.8,286046989.0,N
1678472935.7,286046992.6,N
1678472955.5,286046987.1,N
1678472975.3,286046985.4,N
1678472995.2,286046991.0,N
1678473015.0,286046988.6,N
1678473015.9,286046988.6,N
1678473035.7,286046989.8,N
1678473055.6,286046984.0,N
1678473075.4,286046985.1,N
1678473095.3,286046980.6,N
1678473115.1,286046981.6,N
1678473116.0,286046981.6,N
1678473135.8,286046983.2,N
1678473155.7,286046984.9,N
1678473175.5,286046983.8,N
1678473195.3,286046987.5,N
1678473215.2,286046987.0,N
1678473235.0,286046988.4,N
1678473235.9,286046988.4,N
1678473255.8,286046982.5,N
1678473275.6,286046983.9,N
1678473295.4,286046987.5,N
1678473315.3,286046983.8,N
1678473335.1,286046983.7,N
1678473355.8,286046988.3,N
1678473375.7,286046985.3,N
1678473395.5,286046990.7,N
1678473415.4,286046990.9,N
1678473435.2,286046988.0,Y
1678473455.0,286046998.2,P
1678473455.9,286046998.2,N
1678473475.8,286047000.3,N
1678473495.6,286047006.3,N
1678473515.5,286047011.5,N
1678473535.3,286047011.4,N
1678473555.1,286047008.3,N
1678473575.9,286047007.4,N
1678473595.7,286047004.5,N
1678473615.5,286047012.7,N
1678473635.4,286047011.4,N
1678473655.2,286047014.4,N
1678473675.0,286047020.2,N
1678473676.0,286047020.2,N
1678473695.8,286047026.0,Y
1678473715.6,286047022.0,P
1678473735.5,286047017.9,N
1678473755.3,286047014.3,N
1678473775.1,286047013.8,N
1678473795.9,286047010.2,N
1678473815.7,286047008.7,N
1678473835.6,286047009.4,N
1678473855.4,286047016.9,Y
1678473875.2,286046999.7,P
1678473895.1,286047000.8,N
1678473896.0,286047000.8,N
1678473915.8,286046998.3,N
1678473935.6,286046995.9,N
1678473955.5,286046994.1,N
1678473975.3,286046994.4,N
1678473995.2,286046990.3,N
1678474015.9,286046986.3,N
1678474035.7,286046996.1,N
1678474055.6,286046997.6,N
1678474075.4,286046999.8,N
1678474095.2,286047001.3,N
1678474115.1,286046998.7,N
1678474116.0,286046998.7,N
1678474135.8,286047000.7,N
1678474155.7,286046999.1,N
1678474175.5,286046999.6,N
1678474195.3,286046997.1,N
1678474215.2,286046998.8,N
1678474235.0,286047005.2,N
1678474235.9,286047005.2,N
1678474255.7,286047000.1,N
1678474275.6,286047003.6,N
1678474295.4,286047007.2,N
1678474315.3,286047001.8,N
1678474335.1,286046997.2,N
1678474336.0,286046997.2,N
1678474355.8,286046996.3,N
1678474375.7,286046995.7,N
1678474395.5,286046994.0,N
1678474415.3,286046997.7,N
1678474435.2,286046999.6,N
1678474455.0,286046993.2,N
1678474455.9,286046993.2,N
1678474475.8,286046990.4,N
1678474495.6,286046987.4,N
1678474515.4,286046990.2,N
1678474535.3,286046993.0,N
1678474555.1,286046993.6,N
1678474575.8,286046994.8,N
1678474595.7,286046988.5,N
1678474615.5,286046986.5,N
1678474635.4,286046984.6,Y
1678474655.2,286046986.9,P
1678474675.0,286046991.2,N
1678474675.9,286046991.2,N
1678474695.8,286046989.7,N
1678474715.6,286046990.4,N
1678474735.4,286046987.4,Y
1678474755.3,286046997.1,P
1678474775.1,286046998.1,N
1678474795.9,286046998.9,N
